Regional Weather Roundup
Issued by NWS

Home | Current Version | Previous Version | Text Only | Print | Product List | Glossary Off
Versions: 1 2 3 4 5 6 7 8 9 10 11 12 13 14 15 16 17 18 19 20 21 22 23 24 25 26 27 28 29 30 31 32 33 34 35 36 37 38 39 40 41 42 43 44 45 46 47 48 49 50

000
ASUS43 KTOP 221759
RWRKS

WEATHER ROUNDUP FOR KANSAS
NATIONAL WEATHER SERVICE GOODLAND KS
100 PM CDT TUE MAY 22 2018

NOTE:  "FAIR" INDICATES FEW OR NO CLOUDS BELOW 12,000 FEET WITH NO
SIGNIFICANT WEATHER AND/OR OBSTRUCTIONS TO VISIBILITY.

KSZ001>006-013>018-027>032-041>047-221900-
NORTHWEST KANSAS

CITY           SKY/WX    TMP DP  RH WIND       PRES   REMARKS
GOODLAND       PTSUNNY   78  53  41 S21G33    29.95F
6HR MIN TEMP:  56; 6HR MAX TEMP:  79;

HAYS           SUNNY     86  62  44 S16       29.95F
HILL CITY      SUNNY     84  58  40 S12G23    29.95F
6HR MIN TEMP:  64; 6HR MAX TEMP:  84;

RUSSELL        SUNNY     85  65  51 S14G23    29.96F
6HR MIN TEMP:  64; 6HR MAX TEMP:  85;

$$

KSZ061>065-074>080-084>089-221900-
SOUTHWEST KANSAS

CITY           SKY/WX    TMP DP  RH WIND       PRES   REMARKS
DODGE CITY     SUNNY     85  58  39 S21G31    29.98F
6HR MIN TEMP:  62; 6HR MAX TEMP:  86;

GARDEN CITY    MOSUNNY   81  58  45 S20G31    29.97S
6HR MIN TEMP:  58; 6HR MAX TEMP:  82;

GREAT BEND     SUNNY     85  65  51 S15       29.98F
LIBERAL        MOSUNNY   83  52  34 S23G31    30.00S
$$

KSZ066>073-081>083-090>101-221900-
SOUTHEAST KANSAS

CITY           SKY/WX    TMP DP  RH WIND       PRES   REMARKS
CHANUTE        SUNNY     82  69  64 SE5       30.04F
6HR MIN TEMP:  63; 6HR MAX TEMP:  82;

COFFEYVILLE    SUNNY     84  67  56 CALM      30.02F
6HR MIN TEMP:  63; 6HR MAX TEMP:  84;

HUTCHINSON     SUNNY     85  65  51 S10G21    29.99F
6HR MIN TEMP:  63; 6HR MAX TEMP:  85;

MEDICINE LODGE   N/A     85  65  51 S9        29.97F
NEWTON         MOSUNNY   83  65  54 SW12      30.02F
PARSONS        MOSUNNY   82  67  60 VRB5      30.05F
6HR MIN TEMP:  63; 6HR MAX TEMP:  83;

WICHITA INTL   MOSUNNY   83  68  60 S9        30.01F
6HR MIN TEMP:  64; 6HR MAX TEMP:  83;

WICHITA JABRA  MOSUNNY   83  67  58 S9        30.01F
6HR MIN TEMP:  63; 6HR MAX TEMP:  83;

WINFIELD       PTSUNNY   83  68  60 VRB5      30.03F
6HR MIN TEMP:  64; 6HR MAX TEMP:  84;

$$

KSZ007>012-019>026-033>040-048>060-102>105-221900-
NORTHEAST KANSAS

CITY           SKY/WX    TMP DP  RH WIND       PRES   REMARKS
CONCORDIA      SUNNY     83  64  52 SW10G21   29.98F
6HR MIN TEMP:  65; 6HR MAX TEMP:  84;

EMPORIA        SUNNY     81  67  62 S9        30.02F
6HR MIN TEMP:  61; 6HR MAX TEMP:  81;

LAWRENCE       MOSUNNY   83  65  54 S6        30.03F
6HR MIN TEMP:  58; 6HR MAX TEMP:  84;

MANHATTAN      SUNNY     86  64  47 S9        29.99F
6HR MIN TEMP:  63; 6HR MAX TEMP:  87;

OLATHE IND     MOSUNNY   82  65  56 S3        30.06S
6HR MIN TEMP:  63; 6HR MAX TEMP:  82;

OLATHE EXE     SUNNY     79  64  60 VRB3      30.05F
6HR MIN TEMP:  58; 6HR MAX TEMP:  80;

SALINA         MOSUNNY   86  65  49 S13       29.98F
6HR MIN TEMP:  66; 6HR MAX TEMP:  86;

TOPEKA BILLARD SUNNY     82  66  58 S5        30.02F
6HR MIN TEMP:  60; 6HR MAX TEMP:  83;

TOPEKA FORBES  SUNNY     84  67  56 SE7       30.03F
6HR MIN TEMP:  61; 6HR MAX TEMP:  84;

$$




USA.gov is the U.S. government's official web portal to all federal, state and local government web resources and services.